Location: Ocean City
(38.3360°N, 75.0850°W)
Time: 21:04:41
(UTC-05:00)

Explorer 11/Cluster Stage 4 - Pass Details

Date: 15 November 2019
Orbit: 467 x 1259 km, 28.8° (Epoch: 15 December)

Event Time Altitude Azimuth Distance (km) Brightness Sun altitude
Rises 22:25:11 0° 248° (WSW) 3,719 - -63.8°
Reaches altitude 10° 22:27:52 10° 241° (WSW) 2,878 - -64.1°
Maximum altitude 22:34:33 40° 174° (S) 1,658 - -65.1°
Drops below altitude 10° 22:42:02 10° 108° (ESE) 3,217 - -66.0°
Sets 22:45:12 0° 102° (ESE) 4,200 - -66.4°
